Location: Bidwell Hollow
(37.7387°N, 90.1707°W)
Time: 11:15:37
(UTC+00:00)

Vanguard 3 - Visible Passes

Search period start: 15 May 2026 00:00
Search period end: 25 May 2026 00:00
Orbit: 507 x 3205 km, 33.4° (Epoch: 14 May)

Date Brightness Start Highest point End Pass type
(mag) Time Alt. Az. Time Alt. Az. Time Alt. Az.
15 May 9.9 02:47:53 10° W 02:57:00 21° SW 03:02:59 12° S visible
16 May 10.0 01:20:42 10° W 01:35:15 40° SW 01:44:31 10° SSE visible
17 May 10.1 02:13:10 10° W 02:23:54 24° SW 02:31:29 10° S visible
18 May 10.5 03:10:03 10° WSW 03:12:04 10° SW 03:13:57 10° SW visible
19 May 10.3 01:38:24 10° W 01:50:36 26° SW 01:59:20 10° S visible
20 May 10.7 02:34:00 10° WSW 02:38:54 12° SW 02:43:11 10° SW visible
22 May 10.8 01:58:42 10° W 02:05:34 14° SW 02:11:24 10° SSW visible
